| time (UTC) | temp F | wind direction | speed knots | gust knots | rain 1hr in | rain 24hr in | rain mn in | humidity % | barometer mb |
| 20260505110541 | 43 | 215 | 0.0 | 3.5 | 0.00 | 0.00 | 0.00 | 82 | 1011.4 |
| 20260505102042 | 43 | 0 | 0.9 | 3.5 | 0.00 | 0.00 | 0.00 | 84 | 1011.3 |
| 20260505101547 | 42 | 136 | 0.0 | 3.5 | 0.00 | 0.00 | 0.00 | 84 | 1011.4 |
| 20260505101046 | 43 | 136 | 0.9 | 3.5 | 0.00 | 0.00 | 0.00 | 83 | 1011.3 |
| 20260505100540 | 43 | 115 | 0.0 | 2.6 | 0.00 | 0.00 | 0.00 | 83 | 1011.4 |
| 20260505100049 | 43 | 0 | 0.0 | 2.6 | 0.00 | 0.00 | 0.00 | 82 | 1011.2 |
| 20260505095539 | 43 | 0 | 0.0 | 3.5 | 0.00 | 0.00 | 0.00 | 82 | 1011.1 |
| 20260505095043 | 43 | 115 | 0.9 | 3.5 | 0.00 | 0.00 | 0.00 | 81 | 1011.2 |
| 20260505094550 | 43 | 114 | 0.0 | 3.5 | 0.00 | 0.00 | 0.00 | 81 | 1011.0 |
| 20260505094042 | 44 | 109 | 0.0 | 3.5 | 0.00 | 0.00 | 0.00 | 81 | 1011.1 |
| 20260505093544 | 44 | 73 | 0.9 | 3.5 | 0.00 | 0.00 | 0.00 | 81 | 1011.2 |
| 20260505093048 | 44 | 0 | 0.0 | 1.7 | 0.00 | 0.00 | 0.00 | 81 | 1011.2 |
| 20260505092545 | 44 | 0 | 0.0 | 1.7 | 0.00 | 0.00 | 0.00 | 81 | 1011.2 |
| 20260505092041 | 44 | 0 | 0.0 | 1.7 | 0.00 | 0.00 | 0.00 | 81 | 1011.1 |
| 20260505091549 | 44 | 0 | 0.0 | 1.7 | 0.00 | 0.00 | 0.00 | 80 | 1011.2 |
| 20260505091040 | 45 | 0 | 0.0 | 0.0 | 0.00 | 0.00 | 0.00 | 80 | 1011.3 |
| 20260505090541 | 45 | 0 | 0.0 | 0.0 | 0.00 | 0.00 | 0.00 | 80 | 1011.5 |
| 20260505090105 | 45 | 0 | 0.0 | 0.0 | 0.00 | 0.00 | 0.00 | 80 | 1011.4 |
| 20260505085543 | 45 | 0 | 0.0 | 0.9 | 0.00 | 0.00 | 0.00 | 80 | 1011.3 |
| 20260505085039 | 45 | 0 | 0.0 | 0.9 | 0.00 | 0.00 | 0.00 | 81 | 1011.4 |
| 20260505084548 | 45 | 0 | 0.0 | 1.7 | 0.00 | 0.00 | 0.00 | 81 | 1011.5 |
| 20260505084042 | 45 | 0 | 0.0 | 1.7 | 0.00 | 0.00 | 0.00 | 81 | 1011.8 |
| 20260505083542 | 45 | 0 | 0.0 | 1.7 | 0.00 | 0.00 | 0.00 | 81 | 1011.8 |
| 20260505083103 | 45 | 0 | 0.0 | 1.7 | 0.00 | 0.00 | 0.00 | 81 | 1011.9 |
| 20260505082543 | 45 | 0 | 0.0 | 2.6 | 0.00 | 0.00 | 0.00 | 81 | 1011.8 |
| 20260505082041 | 45 | 0 | 0.0 | 2.6 | 0.00 | 0.00 | 0.00 | 81 | 1012.0 |
| 20260505081552 | 45 | 0 | 0.0 | 2.6 | 0.00 | 0.00 | 0.00 | 81 | 1012.0 |
| 20260505081041 | 45 | 49 | 0.0 | 2.6 | 0.00 | 0.00 | 0.00 | 81 | 1012.0 |
| 20260505080539 | 45 | 50 | 0.0 | 2.6 | 0.00 | 0.00 | 0.00 | 81 | 1012.0 |
| 20260505080055 | 45 | 0 | 0.0 | 3.5 | 0.00 | 0.00 | 0.00 | 81 | 1012.0 |
| 20260505075541 | 45 | 49 | 0.9 | 4.3 | 0.00 | 0.00 | 0.00 | 81 | 1012.0 |
| 20260505075043 | 45 | 49 | 0.9 | 6.1 | 0.00 | 0.00 | 0.00 | 81 | 1012.1 |
| 20260505074553 | 45 | 49 | 0.9 | 6.1 | 0.00 | 0.00 | 0.00 | 81 | 1012.2 |
| 20260505074042 | 45 | 49 | 2.6 | 6.1 | 0.00 | 0.00 | 0.00 | 81 | 1012.2 |
| 20260505073541 | 45 | 49 | 0.9 | 5.2 | 0.00 | 0.00 | 0.00 | 81 | 1012.2 |
| 20260505073057 | 45 | 0 | 0.9 | 5.2 | 0.00 | 0.00 | 0.00 | 81 | 1012.4 |
| 20260505072545 | 45 | 0 | 0.9 | 5.2 | 0.00 | 0.00 | 0.00 | 81 | 1012.2 |
| 20260505072042 | 45 | 50 | 0.9 | 4.3 | 0.00 | 0.00 | 0.00 | 81 | 1012.4 |
| 20260505071548 | 45 | 49 | 0.9 | 4.3 | 0.00 | 0.00 | 0.00 | 80 | 1012.1 |
| 20260505071041 | 45 | 50 | 1.7 | 4.3 | 0.00 | 0.00 | 0.00 | 80 | 1012.1 |
| 20260505070545 | 45 | 49 | 0.9 | 6.1 | 0.00 | 0.00 | 0.00 | 80 | 1012.1 |
| 20260505070054 | 45 | 0 | 0.9 | 6.1 | 0.00 | 0.00 | 0.00 | 80 | 1012.2 |
| 20260505065542 | 45 | 49 | 1.7 | 6.1 | 0.00 | 0.00 | 0.00 | 80 | 1012.2 |
| 20260505065041 | 45 | 49 | 1.7 | 6.1 | 0.00 | 0.00 | 0.00 | 80 | 1012.2 |
| 20260505064550 | 45 | 49 | 0.9 | 5.2 | 0.00 | 0.00 | 0.00 | 80 | 1012.3 |
| 20260505064039 | 46 | 0 | 1.7 | 5.2 | 0.00 | 0.00 | 0.00 | 79 | 1012.2 |
| 20260505063539 | 46 | 49 | 0.9 | 4.3 | 0.00 | 0.00 | 0.00 | 79 | 1012.2 |
| 20260505063047 | 46 | 49 | 1.7 | 4.3 | 0.00 | 0.00 | 0.00 | 79 | 1012.4 |
| 20260505062543 | 46 | 49 | 0.0 | 3.5 | 0.00 | 0.00 | 0.00 | 78 | 1012.5 |
| 20260505062043 | 46 | 0 | 0.9 | 3.5 | 0.00 | 0.00 | 0.00 | 77 | 1012.4 |
| 20260505061555 | 47 | 49 | 0.0 | 5.2 | 0.00 | 0.00 | 0.00 | 77 | 1012.2 |
| 20260505061039 | 47 | 0 | 0.9 | 5.2 | 0.00 | 0.00 | 0.00 | 76 | 1012.4 |
| 20260505060545 | 47 | 49 | 1.7 | 4.3 | 0.00 | 0.00 | 0.00 | 75 | 1012.4 |
| 20260505060058 | 47 | 48 | 0.9 | 4.3 | 0.00 | 0.00 | 0.00 | 74 | 1012.2 |
| 20260505055542 | 47 | 0 | 0.0 | 4.3 | 0.00 | 0.00 | 0.00 | 74 | 1012.5 |
| 20260505055045 | 48 | 46 | 0.9 | 4.3 | 0.00 | 0.00 | 0.00 | 73 | 1012.7 |
| 20260505054550 | 48 | 41 | 0.0 | 4.3 | 0.00 | 0.00 | 0.00 | 71 | 1012.7 |
| 20260505054040 | 48 | 41 | 0.9 | 4.3 | 0.00 | 0.00 | 0.00 | 70 | 1012.5 |
| 20260505053545 | 48 | 41 | 1.7 | 5.2 | 0.00 | 0.00 | 0.00 | 70 | 1012.5 |
| 20260505053050 | 48 | 41 | 1.7 | 6.1 | 0.00 | 0.00 | 0.00 | 69 | 1012.5 |
| 20260505052540 | 48 | 41 | 1.7 | 7.8 | 0.00 | 0.00 | 0.00 | 69 | 1012.7 |
| 20260505052045 | 48 | 41 | 2.6 | 10.4 | 0.00 | 0.00 | 0.00 | 69 | 1012.6 |
| 20260505051552 | 48 | 42 | 1.7 | 10.4 | 0.00 | 0.00 | 0.00 | 68 | 1012.7 |
| 20260505051043 | 48 | 40 | 6.1 | 10.4 | 0.00 | 0.00 | 0.00 | 68 | 1012.4 |
| 20260505050543 | 48 | 51 | 4.3 | 11.3 | 0.00 | 0.00 | 0.00 | 68 | 1012.5 |
| 20260505050126 | 48 | 45 | 2.6 | 11.3 | 0.00 | 0.00 | 0.00 | 68 | 1012.5 |
| 20260505041605 | 48 | 47 | 0.9 | 12.2 | 0.00 | 0.00 | 0.00 | 67 | 1012.0 |
| 20260505041043 | 48 | 22 | 5.2 | 12.2 | 0.00 | 0.00 | 0.00 | 67 | 1011.7 |
| 20260505040542 | 48 | 53 | 2.6 | 9.6 | 0.00 | 0.00 | 0.00 | 66 | 1011.6 |
| 20260505040058 | 48 | 53 | 4.3 | 9.6 | 0.00 | 0.00 | 0.00 | 66 | 1011.7 |
| 20260505035540 | 49 | 53 | 3.5 | 9.6 | 0.00 | 0.00 | 0.00 | 65 | 1011.7 |
| 20260505035040 | 49 | 53 | 1.7 | 8.7 | 0.00 | 0.00 | 0.00 | 65 | 1011.6 |
| 20260505034549 | 49 | 53 | 4.3 | 10.4 | 0.00 | 0.00 | 0.00 | 64 | 1011.5 |
| 20260505034041 | 49 | 54 | 4.3 | 12.2 | 0.00 | 0.00 | 0.00 | 64 | 1011.6 |
| 20260505033541 | 49 | 52 | 6.1 | 12.2 | 0.00 | 0.00 | 0.00 | 64 | 1011.6 |
| 20260505033049 | 49 | 52 | 5.2 | 13.0 | 0.00 | 0.00 | 0.00 | 64 | 1011.5 |
| 20260505032540 | 49 | 49 | 7.0 | 13.0 | 0.00 | 0.00 | 0.00 | 64 | 1011.6 |
| 20260505032040 | 50 | 47 | 4.3 | 12.2 | 0.00 | 0.00 | 0.00 | 63 | 1011.7 |
| 20260505031548 | 50 | 46 | 5.2 | 12.2 | 0.00 | 0.00 | 0.00 | 62 | 1011.6 |
| 20260505031043 | 50 | 28 | 3.5 | 10.4 | 0.00 | 0.00 | 0.00 | 62 | 1011.6 |
| 20260505030542 | 50 | 18 | 3.5 | 10.4 | 0.00 | 0.00 | 0.00 | 62 | 1011.5 |
| 20260505030045 | 50 | 56 | 3.5 | 10.4 | 0.00 | 0.00 | 0.00 | 61 | 1011.3 |
| 20260505025540 | 50 | 56 | 2.6 | 9.6 | 0.00 | 0.00 | 0.00 | 61 | 1011.3 |
| 20260505025042 | 50 | 56 | 4.3 | 9.6 | 0.00 | 0.00 | 0.00 | 61 | 1011.2 |
| 20260505024550 | 50 | 55 | 2.6 | 7.8 | 0.00 | 0.00 | 0.00 | 61 | 1011.5 |
| 20260505024040 | 50 | 56 | 3.5 | 10.4 | 0.00 | 0.00 | 0.00 | 61 | 1011.6 |
| 20260505023543 | 50 | 55 | 4.3 | 10.4 | 0.00 | 0.00 | 0.00 | 61 | 1011.3 |
| 20260505023053 | 50 | 56 | 3.5 | 10.4 | 0.00 | 0.00 | 0.00 | 61 | 1011.3 |
| 20260505022540 | 50 | 56 | 2.6 | 7.8 | 0.00 | 0.00 | 0.00 | 61 | 1011.3 |
| 20260505022039 | 50 | 56 | 2.6 | 7.8 | 0.00 | 0.00 | 0.00 | 61 | 1011.4 |
| 20260505021551 | 51 | 56 | 2.6 | 9.6 | 0.00 | 0.00 | 0.00 | 61 | 1011.6 |
| 20260505021041 | 51 | 56 | 3.5 | 12.2 | 0.00 | 0.00 | 0.00 | 61 | 1011.5 |
| 20260505020542 | 51 | 56 | 6.1 | 16.5 | 0.00 | 0.00 | 0.00 | 60 | 1011.6 |
| 20260505020045 | 51 | 57 | 5.2 | 16.5 | 0.00 | 0.00 | 0.00 | 60 | 1011.6 |
| 20260505015542 | 51 | 50 | 3.5 | 10.4 | 0.00 | 0.00 | 0.00 | 60 | 1011.6 |
| 20260505015039 | 51 | 49 | 5.2 | 10.4 | 0.00 | 0.00 | 0.00 | 59 | 1011.4 |
| 20260505014602 | 52 | 46 | 4.3 | 9.6 | 0.00 | 0.00 | 0.00 | 59 | 1011.3 |
| 20260505014042 | 52 | 40 | 4.3 | 11.3 | 0.00 | 0.00 | 0.00 | 59 | 1011.1 |
| 20260505013541 | 52 | 36 | 5.2 | 15.6 | 0.00 | 0.00 | 0.00 | 59 | 1010.9 |
| 20260505013051 | 53 | 25 | 5.2 | 15.6 | 0.00 | 0.00 | 0.00 | 58 | 1011.0 |
| 20260505012542 | 53 | 15 | 7.8 | 15.6 | 0.00 | 0.00 | 0.00 | 56 | 1011.0 |
| 20260505012042 | 54 | 38 | 5.2 | 11.3 | 0.00 | 0.00 | 0.00 | 55 | 1011.2 |
| 20260505011550 | 54 | 36 | 4.3 | 9.6 | 0.00 | 0.00 | 0.00 | 53 | 1011.0 |
| 20260505011043 | 55 | 38 | 2.6 | 8.7 | 0.00 | 0.00 | 0.00 | 52 | 1010.9 |
| 20260505010542 | 55 | 33 | 3.5 | 9.6 | 0.00 | 0.00 | 0.00 | 50 | 1010.7 |
| 20260505010050 | 55 | 33 | 0.9 | 12.2 | 0.00 | 0.00 | 0.00 | 51 | 1010.7 |
| 20260505005542 | 55 | 34 | 7.0 | 12.2 | 0.00 | 0.00 | 0.00 | 50 | 1010.5 |
| 20260505005042 | 55 | 5 | 4.3 | 11.3 | 0.00 | 0.00 | 0.00 | 51 | 1010.7 |
| 20260505004551 | 56 | 345 | 3.5 | 15.6 | 0.00 | 0.00 | 0.00 | 51 | 1010.7 |
| 20260505004041 | 56 | 11 | 7.8 | 20.9 | 0.00 | 0.00 | 0.00 | 49 | 1010.2 |
| 20260505003540 | 57 | 10 | 9.6 | 20.9 | 0.00 | 0.00 | 0.00 | 44 | 1010.2 |
| 20260505003050 | 58 | 39 | 12.2 | 19.1 | 0.00 | 0.00 | 0.00 | 43 | 1009.9 |
| 20260505002542 | 59 | 46 | 9.6 | 16.5 | 0.00 | 0.00 | 0.00 | 41 | 1009.7 |
| 20260505002038 | 60 | 44 | 7.8 | 16.5 | 0.00 | 0.00 | 0.00 | 39 | 1009.6 |
| 20260505001601 | 60 | 67 | 3.5 | 10.4 | 0.00 | 0.00 | 0.00 | 38 | 1009.2 |
| 20260505001040 | 60 | 72 | 2.6 | 13.9 | 0.00 | 0.00 | 0.00 | 38 | 1009.0 |
| 20260505000538 | 60 | 73 | 4.3 | 15.6 | 0.00 | 0.00 | 0.00 | 38 | 1009.0 |
| 20260505000103 | 61 | 44 | 7.0 | 15.6 | 0.00 | 0.00 | 0.00 | 38 | 1008.9 |
| 20260504235542 | 61 | 34 | 7.0 | 16.5 | 0.00 | 0.00 | 0.00 | 38 | 1008.8 |
| 20260504235038 | 62 | 74 | 6.1 | 16.5 | 0.00 | 0.00 | 0.00 | 38 | 1008.8 |
| 20260504234607 | 62 | 51 | 7.0 | 14.8 | 0.00 | 0.00 | 0.00 | 37 | 1008.9 |
| 20260504234041 | 62 | 74 | 4.3 | 14.8 | 0.00 | 0.00 | 0.00 | 37 | 1008.6 |
| 20260504233544 | 62 | 44 | 7.8 | 14.8 | 0.00 | 0.00 | 0.00 | 37 | 1008.8 |
| 20260504233103 | 63 | 67 | 5.2 | 14.8 | 0.00 | 0.00 | 0.00 | 37 | 1008.8 |
| 20260504232542 | 63 | 55 | 2.6 | 9.6 | 0.00 | 0.00 | 0.00 | 38 | 1008.6 |
| 20260504232038 | 62 | 0 | 2.6 | 9.6 | 0.00 | 0.00 | 0.00 | 38 | 1008.8 |
| 20260504231550 | 62 | 200 | 0.0 | 4.3 | 0.00 | 0.00 | 0.00 | 39 | 1008.8 |
| 20260504231038 | 62 | 0 | 0.9 | 4.3 | 0.00 | 0.00 | 0.00 | 41 | 1008.8 |
| 20260504230538 | 62 | 200 | 0.9 | 4.3 | 0.00 | 0.00 | 0.00 | 40 | 1008.8 |
| 20260504230047 | 62 | 200 | 0.9 | 5.2 | 0.00 | 0.00 | 0.00 | 41 | 1008.6 |
| 20260504225540 | 62 | 0 | 2.6 | 6.1 | 0.00 | 0.00 | 0.00 | 42 | 1008.7 |
| 20260504225040 | 62 | 200 | 1.7 | 6.1 | 0.00 | 0.00 | 0.00 | 41 | 1008.6 |
| 20260504224606 | 62 | 201 | 2.6 | 6.1 | 0.00 | 0.00 | 0.00 | 41 | 1008.4 |
| 20260504224039 | 62 | 201 | 1.7 | 7.8 | 0.00 | 0.00 | 0.00 | 42 | 1008.4 |
| 20260504223541 | 62 | 200 | 2.6 | 7.8 | 0.00 | 0.00 | 0.00 | 41 | 1008.4 |
| 20260504223051 | 62 | 202 | 2.6 | 7.8 | 0.00 | 0.00 | 0.00 | 39 | 1008.5 |
| 20260504222538 | 62 | 0 | 2.6 | 7.8 | 0.00 | 0.00 | 0.00 | 39 | 1008.7 |
| 20260504222042 | 63 | 213 | 2.6 | 12.2 | 0.00 | 0.00 | 0.00 | 37 | 1008.7 |
| 20260504221549 | 64 | 225 | 3.5 | 12.2 | 0.00 | 0.00 | 0.00 | 36 | 1008.6 |
| 20260504221042 | 64 | 234 | 3.5 | 14.8 | 0.00 | 0.00 | 0.00 | 35 | 1008.3 |
| 20260504220544 | 64 | 236 | 7.8 | 14.8 | 0.00 | 0.00 | 0.00 | 35 | 1008.6 |
| 20260504220051 | 63 | 0 | 2.6 | 14.8 | 0.00 | 0.00 | 0.00 | 36 | 1008.6 |
| 20260504215539 | 63 | 304 | 4.3 | 14.8 | 0.00 | 0.00 | 0.00 | 34 | 1008.7 |
| 20260504215037 | 63 | 292 | 2.6 | 14.8 | 0.00 | 0.00 | 0.00 | 35 | 1008.7 |
| 20260504214550 | 62 | 0 | 0.0 | 7.8 | 0.00 | 0.00 | 0.00 | 34 | 1008.8 |
| 20260504214041 | 63 | 0 | 2.6 | 13.9 | 0.00 | 0.00 | 0.00 | 33 | 1008.7 |
| 20260504213541 | 63 | 0 | 0.9 | 13.9 | 0.00 | 0.00 | 0.00 | 34 | 1008.7 |
| 20260504213119 | 63 | 80 | 6.1 | 18.2 | 0.00 | 0.00 | 0.00 | 35 | 1008.7 |
| 20260504212541 | 64 | 51 | 5.2 | 19.1 | 0.00 | 0.00 | 0.00 | 32 | 1008.6 |
| 20260504212045 | 64 | 360 | 9.6 | 19.1 | 0.00 | 0.00 | 0.00 | 32 | 1008.8 |
| 20260504211555 | 65 | 355 | 7.0 | 14.8 | 0.00 | 0.00 | 0.00 | 30 | 1008.5 |
| 20260504211041 | 65 | 32 | 7.8 | 17.4 | 0.00 | 0.00 | 0.00 | 29 | 1008.4 |
| 20260504210541 | 66 | 336 | 8.7 | 17.4 | 0.00 | 0.00 | 0.00 | 29 | 1008.2 |
| 20260504210044 | 67 | 29 | 10.4 | 17.4 | 0.00 | 0.00 | 0.00 | 29 | 1008.2 |
| 20260504205542 | 68 | 30 | 7.8 | 15.6 | 0.00 | 0.00 | 0.00 | 29 | 1008.2 |
| 20260504205043 | 69 | 29 | 7.8 | 14.8 | 0.00 | 0.00 | 0.00 | 28 | 1008.0 |
| 20260504204552 | 69 | 37 | 0.9 | 5.2 | 0.00 | 0.00 | 0.00 | 27 | 1008.2 |
| 20260504204042 | 69 | 0 | 0.0 | 7.8 | 0.00 | 0.00 | 0.00 | 28 | 1008.2 |
| 20260504203539 | 69 | 0 | 2.6 | 8.7 | 0.00 | 0.00 | 0.00 | 27 | 1008.3 |
| 20260504203104 | 69 | 314 | 0.9 | 9.6 | 0.00 | 0.00 | 0.00 | 29 | 1008.4 |
| 20260504202542 | 68 | 30 | 3.5 | 9.6 | 0.00 | 0.00 | 0.00 | 29 | 1008.5 |
| 20260504202041 | 68 | 0 | 4.3 | 12.2 | 0.00 | 0.00 | 0.00 | 29 | 1008.5 |
| 20260504201548 | 67 | 28 | 3.5 | 12.2 | 0.00 | 0.00 | 0.00 | 30 | 1008.7 |
| 20260504201041 | 66 | 0 | 2.6 | 13.0 | 0.00 | 0.00 | 0.00 | 31 | 1008.6 |
| 20260504200538 | 66 | 334 | 6.1 | 13.0 | 0.00 | 0.00 | 0.00 | 30 | 1008.7 |
| 20260504200052 | 66 | 355 | 5.2 | 18.2 | 0.00 | 0.00 | 0.00 | 31 | 1008.9 |
| 20260504195541 | 66 | 355 | 6.1 | 24.3 | 0.00 | 0.00 | 0.00 | 30 | 1009.0 |
| 20260504195045 | 67 | 302 | 11.3 | 24.3 | 0.00 | 0.00 | 0.00 | 29 | 1008.9 |
| 20260504194600 | 68 | 360 | 12.2 | 22.6 | 0.00 | 0.00 | 0.00 | 27 | 1008.9 |
| 20260504194042 | 70 | 5 | 9.6 | 14.8 | 0.00 | 0.00 | 0.00 | 25 | 1008.8 |
| 20260504193542 | 72 | 22 | 7.8 | 14.8 | 0.00 | 0.00 | 0.00 | 24 | 1008.9 |
| 20260504193056 | 73 | 360 | 4.3 | 12.2 | 0.00 | 0.00 | 0.00 | 22 | 1008.7 |
| 20260504192541 | 73 | 11 | 1.7 | 9.6 | 0.00 | 0.00 | 0.00 | 22 | 1008.8 |
| 20260504192041 | 73 | 306 | 3.5 | 12.2 | 0.00 | 0.00 | 0.00 | 21 | 1008.8 |
| 20260504191549 | 74 | 302 | 4.3 | 12.2 | 0.00 | 0.00 | 0.00 | 23 | 1008.8 |
| 20260504191041 | 74 | 28 | 2.6 | 14.8 | 0.00 | 0.00 | 0.00 | 23 | 1008.6 |
| 20260504190545 | 73 | 279 | 6.1 | 14.8 | 0.00 | 0.00 | 0.00 | 24 | 1008.7 |
| 20260504185542 | 72 | 207 | 7.0 | 13.0 | 0.00 | 0.00 | 0.00 | 23 | 1009.0 |
| 20260504185041 | 72 | 249 | 3.5 | 11.3 | 0.00 | 0.00 | 0.00 | 24 | 1009.1 |
| 20260504184559 | 72 | 329 | 5.2 | 10.4 | 0.00 | 0.00 | 0.00 | 23 | 1009.3 |
| 20260504184043 | 71 | 13 | 2.6 | 7.8 | 0.00 | 0.00 | 0.00 | 24 | 1009.4 |
| 20260504183542 | 71 | 24 | 1.7 | 8.7 | 0.00 | 0.00 | 0.00 | 25 | 1009.3 |
| 20260504183046 | 70 | 0 | 3.5 | 8.7 | 0.00 | 0.00 | 0.00 | 24 | 1009.6 |
| 20260504182544 | 70 | 40 | 2.6 | 11.3 | 0.00 | 0.00 | 0.00 | 24 | 1009.7 |
| 20260504182039 | 70 | 12 | 4.3 | 11.3 | 0.00 | 0.00 | 0.00 | 23 | 1009.9 |
| 20260504181546 | 70 | 323 | 3.5 | 11.3 | 0.00 | 0.00 | 0.00 | 26 | 1010.1 |
| 20260504181041 | 70 | 323 | 0.0 | 4.3 | 0.00 | 0.00 | 0.00 | 24 | 1009.9 |
| 20260504180539 | 70 | 228 | 0.9 | 4.3 | 0.00 | 0.00 | 0.00 | 25 | 1009.9 |
| 20260504180051 | 69 | 0 | 1.7 | 8.7 | 0.00 | 0.00 | 0.00 | 26 | 1009.9 |
| 20260504175542 | 69 | 0 | 1.7 | 8.7 | 0.00 | 0.00 | 0.00 | 26 | 1009.9 |
| 20260504175043 | 70 | 202 | 5.2 | 10.4 | 0.00 | 0.00 | 0.00 | 24 | 1010.2 |
| 20260504174555 | 69 | 207 | 3.5 | 10.4 | 0.00 | 0.00 | 0.00 | 28 | 1010.3 |
| 20260504174042 | 67 | 225 | 4.3 | 10.4 | 0.00 | 0.00 | 0.00 | 29 | 1010.5 |
| 20260504173542 | 65 | 360 | 1.7 | 7.8 | 0.00 | 0.00 | 0.00 | 30 | 1010.7 |
| 20260504173051 | 64 | 349 | 2.6 | 19.1 | 0.00 | 0.00 | 0.00 | 27 | 1010.8 |
| 20260504172541 | 65 | 355 | 7.0 | 19.1 | 0.00 | 0.00 | 0.00 | 25 | 1010.9 |
| 20260504172044 | 66 | 298 | 4.3 | 21.7 | 0.00 | 0.00 | 0.00 | 27 | 1010.8 |
| 20260504171548 | 66 | 36 | 6.1 | 21.7 | 0.00 | 0.00 | 0.00 | 29 | 1010.9 |
| 20260504171044 | 66 | 304 | 8.7 | 21.7 | 0.00 | 0.00 | 0.00 | 29 | 1011.0 |
| 20260504170542 | 66 | 325 | 4.3 | 18.2 | 0.00 | 0.00 | 0.00 | 30 | 1011.0 |
| 20260504151041 | 57 | 287 | 10.4 | 24.3 | 0.00 | 0.00 | 0.00 | 39 | 1011.5 |
| 20260504150541 | 57 | 287 | 8.7 | 26.1 | 0.00 | 0.00 | 0.00 | 37 | 1011.4 |
| 20260504141041 | 58 | 306 | 7.8 | 20.0 | 0.00 | 0.00 | 0.00 | 37 | 1011.1 |
| 20260504140541 | 58 | 13 | 6.1 | 17.4 | 0.00 | 0.00 | 0.00 | 37 | 1011.1 |
| 20260504130545 | 49 | 96 | 0.0 | 6.1 | 0.00 | 0.00 | 0.00 | 47 | 1011.4 |